INTELSAT 805 (IS-805)

Last updated on Fri Jan 01 2021 06:25:08 GMT+0000 (Coordinated Universal Time)

1 25371U 98037A 20366.78419318 .00000115 00000-0 00000-0 0 9990 2 25371 2.9247 86.1898 0010884 114.0372 41.2008 0.99475319 82533
UTC large
Height (km)
Speed (km/s)
/
Latitude / Longitude
Inclination (degrees)
Orbital Period (minutes)
Azimuth
Elevation
Range (km)
Doppler Factor

Next 0 passes for location: London (51.5072 / 0.1276)

Sorry there are no passes over London.